• In Uzbekistan
  • List of Countries
  • For 7 days
  • Water Temperature
  • Satellite Maps
  • Weather Map
  • Weather Widgets
  • user-avatar
    Login

    Hourly Weather Rosochate

    Today, 24 September, Monday

    Time Temperature Precipitation Wind Pressure Humidity
    00:00 +11°C° 0.1 mm 8 mps 706 mmHg 62%
    01:00 +11°C° 0.1 mm 8 mps 706 mmHg 66%
    02:00 +11°C° 0.1 mm 9 mps 705 mmHg 69%
    03:00 +10°C° 1.5 mm 8 mps 705 mmHg 76%
    04:00 +10°C° 1.5 mm 7 mps 705 mmHg 83%
    05:00 +9°C° 1.5 mm 6 mps 705 mmHg 90%
    06:00 +9°C° 1.1 mm 6 mps 706 mmHg 90%
    07:00 +8°C° 1.1 mm 6 mps 707 mmHg 90%
    08:00 +7°C° 1.1 mm 6 mps 709 mmHg 89%
    09:00 +7°C° 0.2 mm 6 mps 710 mmHg 87%
    10:00 +7°C° 0.2 mm 5 mps 711 mmHg 85%
    11:00 +7°C° 0.2 mm 5 mps 712 mmHg 83%
    12:00 +7°C° 0.1 mm 5 mps 712 mmHg 79%
    13:00 +8°C° 0.1 mm 6 mps 713 mmHg 74%
    14:00 +8°C° 0.1 mm 6 mps 714 mmHg 70%
    15:00 +8°C° 0.1 mm 6 mps 714 mmHg 68%
    16:00 +8°C° 0.1 mm 6 mps 714 mmHg 66%
    17:00 +7°C° 0.1 mm 6 mps 714 mmHg 64%
    18:00 +6°C° 0 mm 5 mps 715 mmHg 67%
    19:00 +5°C° 0 mm 4 mps 715 mmHg 70%
    20:00 +4°C° 0 mm 4 mps 715 mmHg 73%
    21:00 +4°C° 0 mm 4 mps 716 mmHg 74%
    22:00 +3°C° 0 mm 4 mps 716 mmHg 76%
    23:00 +3°C° 0 mm 4 mps 716 mmHg 78%

    Tomorrow, 25 September, Tuesday

    Time Temperature Precipitation Wind Pressure Humidity
    00:00 +3°C° 0.2 mm 4 mps 716 mmHg 81%
    01:00 +3°C° 0.2 mm 4 mps 717 mmHg 84%
    02:00 +3°C° 0.2 mm 4 mps 717 mmHg 87%
    03:00 +3°C° 0.1 mm 3 mps 718 mmHg 88%
    04:00 +3°C° 0.1 mm 3 mps 718 mmHg 90%
    05:00 +2°C° 0.1 mm 3 mps 718 mmHg 92%
    06:00 +2°C° 0 mm 3 mps 719 mmHg 90%
    07:00 +3°C° 0 mm 4 mps 720 mmHg 88%
    08:00 +3°C° 0 mm 4 mps 720 mmHg 87%
    09:00 +4°C° 0.1 mm 4 mps 721 mmHg 79%
    10:00 +6°C° 0.1 mm 5 mps 721 mmHg 71%
    11:00 +7°C° 0.1 mm 5 mps 722 mmHg 63%
    12:00 +8°C° 0.1 mm 5 mps 722 mmHg 58%
    13:00 +8°C° 0.1 mm 5 mps 722 mmHg 53%
    14:00 +9°C° 0.1 mm 6 mps 722 mmHg 49%
    15:00 +8°C° 0 mm 5 mps 722 mmHg 51%
    16:00 +8°C° 0 mm 4 mps 722 mmHg 54%
    17:00 +7°C° 0 mm 4 mps 723 mmHg 56%
    18:00 +7°C° 0 mm 3 mps 723 mmHg 62%
    19:00 +5°C° 0 mm 2 mps 723 mmHg 68%
    20:00 +3°C° 0 mm 2 mps 724 mmHg 73%
    21:00 +3°C° 0 mm 2 mps 724 mmHg 74%
    22:00 +2°C° 0 mm 2 mps 725 mmHg 74%
    23:00 +2°C° 0 mm 2 mps 725 mmHg 75%

    Day after tomorrow, 26 September, Wednesday

    Time Temperature Precipitation Wind Pressure Humidity
    00:00 +3°C° 0 mm 1 mps 725 mmHg 76%
    01:00 +2°C° 0 mm 1 mps 725 mmHg 77%
    02:00 +2°C° 0 mm 1 mps 726 mmHg 78%
    03:00 +1°C° 0 mm 1 mps 726 mmHg 80%
    04:00 +1°C° 0 mm 1 mps 726 mmHg 82%
    05:00 +1°C° 0 mm 1 mps 726 mmHg 84%
    06:00 +2°C° 0 mm 1 mps 726 mmHg 80%
    07:00 +3°C° 0 mm 1 mps 727 mmHg 76%
    08:00 +4°C° 0 mm 1 mps 727 mmHg 72%
    09:00 +6°C° 0 mm 1 mps 727 mmHg 63%
    10:00 +8°C° 0 mm 1 mps 727 mmHg 53%
    11:00 +10°C° 0 mm 1 mps 727 mmHg 44%
    12:00 +11°C° 0 mm 1 mps 727 mmHg 41%
    13:00 +12°C° 0 mm 1 mps 727 mmHg 39%
    14:00 +12°C° 0 mm 1 mps 726 mmHg 37%
    15:00 +12°C° 0 mm 1 mps 726 mmHg 41%
    16:00 +12°C° 0 mm 1 mps 725 mmHg 45%
    17:00 +11°C° 0 mm 1 mps 725 mmHg 49%
    18:00 +9°C° 0 mm 1 mps 724 mmHg 53%
    19:00 +6°C° 0 mm 2 mps 724 mmHg 57%
    20:00 +5°C° 0 mm 2 mps 724 mmHg 61%
    21:00 +5°C° 0 mm 2 mps 724 mmHg 60%
    22:00 +5°C° 0 mm 2 mps 724 mmHg 58%
    23:00 +5°C° 0 mm 3 mps 724 mmHg 57%

    27 September, Thursday

    Time Temperature Precipitation Wind Pressure Humidity
    00:00 +5°C° 0 mm 3 mps 723 mmHg 58%
    01:00 +4°C° 0 mm 3 mps 723 mmHg 59%
    02:00 +4°C° 0 mm 3 mps 723 mmHg 61%
    03:00 +4°C° 0 mm 3 mps 722 mmHg 60%
    04:00 +4°C° 0 mm 3 mps 722 mmHg 60%
    05:00 +4°C° 0 mm 3 mps 722 mmHg 60%
    06:00 +5°C° 0 mm 3 mps 722 mmHg 59%
    07:00 +5°C° 0 mm 3 mps 722 mmHg 58%
    08:00 +5°C° 0 mm 4 mps 722 mmHg 57%
    09:00 +7°C° 0 mm 4 mps 722 mmHg 53%
    10:00 +10°C° 0 mm 4 mps 722 mmHg 49%
    11:00 +12°C° 0 mm 4 mps 722 mmHg 45%
    12:00 +12°C° 0 mm 4 mps 721 mmHg 46%
    13:00 +13°C° 0 mm 4 mps 721 mmHg 46%
    14:00 +13°C° 0 mm 4 mps 721 mmHg 46%
    15:00 +13°C° 0 mm 4 mps 720 mmHg 49%
    16:00 +13°C° 0 mm 3 mps 720 mmHg 52%
    17:00 +13°C° 0 mm 3 mps 720 mmHg 54%
    18:00 +11°C° 0 mm 3 mps 719 mmHg 57%
    19:00 +10°C° 0 mm 3 mps 719 mmHg 59%
    20:00 +8°C° 0 mm 3 mps 719 mmHg 62%
    21:00 +8°C° 0 mm 3 mps 719 mmHg 61%
    22:00 +8°C° 0 mm 3 mps 719 mmHg 61%
    23:00 +8°C° 0 mm 2 mps 719 mmHg 60%

    28 September, Friday

    Time Temperature Precipitation Wind Pressure Humidity
    00:00 +8°C° 0 mm 2 mps 718 mmHg 60%
    01:00 +7°C° 0 mm 2 mps 718 mmHg 60%
    02:00 +7°C° 0 mm 2 mps 718 mmHg 60%
    03:00 +7°C° 0 mm 2 mps 717 mmHg 61%
    04:00 +7°C° 0 mm 2 mps 717 mmHg 61%
    05:00 +7°C° 0 mm 2 mps 717 mmHg 61%
    06:00 +8°C° 0 mm 2 mps 717 mmHg 61%
    07:00 +8°C° 0 mm 2 mps 717 mmHg 60%
    08:00 +9°C° 0 mm 2 mps 717 mmHg 59%
    09:00 +12°C° 0 mm 2 mps 717 mmHg 55%
    10:00 +14°C° 0 mm 2 mps 717 mmHg 51%
    11:00 +16°C° 0 mm 2 mps 717 mmHg 47%
    12:00 +17°C° 0 mm 2 mps 717 mmHg 47%
    13:00 +18°C° 0 mm 2 mps 717 mmHg 47%
    14:00 +18°C° 0 mm 2 mps 716 mmHg 47%
    15:00 +18°C° 0 mm 2 mps 716 mmHg 52%
    16:00 +18°C° 0 mm 1 mps 716 mmHg 56%
    17:00 +18°C° 0 mm 1 mps 715 mmHg 61%
    18:00 +15°C° 0 mm 1 mps 715 mmHg 64%
    19:00 +13°C° 0 mm 1 mps 715 mmHg 68%
    20:00 +12°C° 0 mm 1 mps 715 mmHg 71%
    21:00 +12°C° 0 mm 1 mps 715 mmHg 74%
    22:00 +11°C° 0 mm 1 mps 715 mmHg 76%
    23:00 +11°C° 0 mm 1 mps 715 mmHg 78%

    29 September, Saturday

    Time Temperature Precipitation Wind Pressure Humidity
    00:00 +11°C° 0 mm 1 mps 715 mmHg 81%
    01:00 +11°C° 0 mm 1 mps 715 mmHg 83%
    02:00 +11°C° 0 mm 1 mps 715 mmHg 86%
    03:00 +11°C° 0.4 mm 1 mps 715 mmHg 88%
    04:00 +10°C° 0.4 mm 2 mps 715 mmHg 90%
    05:00 +10°C° 0.4 mm 2 mps 715 mmHg 92%
    06:00 +10°C° 0.5 mm 2 mps 716 mmHg 92%
    07:00 +9°C° 0.5 mm 2 mps 716 mmHg 91%
    08:00 +9°C° 0.5 mm 3 mps 716 mmHg 91%
    09:00 +10°C° 0.1 mm 3 mps 717 mmHg 84%
    10:00 +11°C° 0.1 mm 3 mps 717 mmHg 77%
    11:00 +11°C° 0.1 mm 4 mps 718 mmHg 70%
    12:00 +12°C° 0 mm 4 mps 718 mmHg 66%
    13:00 +12°C° 0 mm 4 mps 718 mmHg 62%
    14:00 +13°C° 0 mm 4 mps 718 mmHg 58%
    15:00 +12°C° 0 mm 4 mps 718 mmHg 61%
    16:00 +11°C° 0 mm 4 mps 718 mmHg 64%
    17:00 +11°C° 0 mm 4 mps 718 mmHg 67%
    18:00 +8°C° 0 mm 4 mps 718 mmHg 72%
    19:00 +7°C° 0 mm 4 mps 719 mmHg 76%
    20:00 +5°C° 0 mm 3 mps 719 mmHg 80%
    21:00 +5°C° 0 mm 3 mps 719 mmHg 79%
    22:00 +4°C° 0 mm 3 mps 719 mmHg 77%
    23:00 +4°C° 0 mm 3 mps 720 mmHg 76%
    Show more